Time,TemperatureF,DewpointF,PressureIn,WindDirection,WindDirectionDegrees,WindSpeedMPH,WindSpeedGustMPH,Humidity,HourlyPrecipIn,Conditions,Clouds,dailyrainin,SoftwareType,DateUTC
2013-05-02 00:04:00,66.8,58.0,30.15,ESE,108,1.0,3.0,73,0.00,,,0.00,weatherlink.com 1.10,2013-05-02 04:04:00,
2013-05-02 00:19:00,66.4,58.0,30.15,ESE,111,2.0,4.0,74,0.00,,,0.00,weatherlink.com 1.10,2013-05-02 04:19:00,
2013-05-02 00:34:00,66.0,58.0,30.14,ESE,111,3.0,3.0,75,0.00,,,0.00,weatherlink.com 1.10,2013-05-02 04:34:00,
2013-05-02 00:49:00,65.6,58.0,30.14,ESE,107,2.0,4.0,76,0.00,,,0.00,weatherlink.com 1.10,2013-05-02 04:49:00,
2013-05-02 01:04:00,65.6,58.0,30.14,ESE,109,2.0,4.0,75,0.00,,,0.00,weatherlink.com 1.10,2013-05-02 05:04:00,
2013-05-02 01:20:00,65.8,57.0,30.14,ESE,114,0.0,4.0,74,0.00,,,0.00,weatherlink.com 1.10,2013-05-02 05:20:00,
2013-05-02 01:35:00,65.5,57.0,30.14,ESE,114,0.0,3.0,75,0.00,,,0.00,weatherlink.com 1.10,2013-05-02 05:35:00,
2013-05-02 01:50:00,65.0,57.0,30.14,ESE,114,0.0,0.0,76,0.00,,,0.00,weatherlink.com 1.10,2013-05-02 05:50:00,
2013-05-02 02:05:00,64.4,57.0,30.14,ESE,114,1.0,2.0,78,0.00,,,0.00,weatherlink.com 1.10,2013-05-02 06:05:00,
2013-05-02 02:22:00,63.4,57.0,30.13,ESE,114,0.0,0.0,80,0.00,,,0.00,weatherlink.com 1.10,2013-05-02 06:22:00,
2013-05-02 02:37:00,62.4,57.0,30.13,ESE,114,0.0,0.0,82,0.00,,,0.00,weatherlink.com 1.10,2013-05-02 06:37:00,
2013-05-02 02:52:00,61.5,57.0,30.13,ESE,114,0.0,0.0,84,0.00,,,0.00,weatherlink.com 1.10,2013-05-02 06:52:00,
2013-05-02 03:07:00,60.7,56.0,30.12,ESE,114,0.0,0.0,85,0.00,,,0.00,weatherlink.com 1.10,2013-05-02 07:07:00,
2013-05-02 03:22:00,60.2,56.0,30.12,ESE,114,1.0,2.0,86,0.00,,,0.00,weatherlink.com 1.10,2013-05-02 07:22:00,
2013-05-02 03:38:00,59.4,56.0,30.13,ESE,114,0.0,2.0,87,0.00,,,0.00,weatherlink.com 1.10,2013-05-02 07:38:00,
2013-05-02 03:53:00,59.1,56.0,30.13,ESE,114,0.0,0.0,88,0.00,,,0.00,weatherlink.com 1.10,2013-05-02 07:53:00,
2013-05-02 04:08:00,58.9,55.0,30.13,ESE,114,1.0,3.0,88,0.00,,,0.00,weatherlink.com 1.10,2013-05-02 08:08:00,
2013-05-02 04:23:00,58.9,55.0,30.13,ESE,114,2.0,3.0,88,0.00,,,0.00,weatherlink.com 1.10,2013-05-02 08:23:00,
2013-05-02 04:39:00,58.8,56.0,30.13,ESE,114,1.0,3.0,89,0.00,,,0.00,weatherlink.com 1.10,2013-05-02 08:39:00,
2013-05-02 04:54:00,58.5,55.0,30.13,ESE,114,2.0,3.0,89,0.00,,,0.00,weatherlink.com 1.10,2013-05-02 08:54:00,
2013-05-02 05:09:00,58.7,56.0,30.13,ESE,114,3.0,3.0,89,0.00,,,0.00,weatherlink.com 1.10,2013-05-02 09:09:00,
2013-05-02 05:24:00,59.2,55.0,30.13,ESE,114,0.0,0.0,87,0.00,,,0.00,weatherlink.com 1.10,2013-05-02 09:24:00,
2013-05-02 05:40:00,58.8,55.0,30.13,ESE,114,2.0,3.0,87,0.00,,,0.00,weatherlink.com 1.10,2013-05-02 09:40:00,
2013-05-02 05:55:00,58.7,55.0,30.13,ESE,114,1.0,2.0,87,0.00,,,0.00,weatherlink.com 1.10,2013-05-02 09:55:00,
2013-05-02 06:10:00,58.7,55.0,30.13,ESE,114,1.0,3.0,87,0.00,,,0.00,weatherlink.com 1.10,2013-05-02 10:10:00,
2013-05-02 06:25:00,58.6,55.0,30.14,ESE,114,0.0,2.0,87,0.00,,,0.00,weatherlink.com 1.10,2013-05-02 10:25:00,
2013-05-02 06:42:00,58.5,55.0,30.14,ESE,114,2.0,3.0,87,0.00,,,0.00,weatherlink.com 1.10,2013-05-02 10:42:00,
2013-05-02 06:57:00,58.9,55.0,30.14,ESE,118,0.0,3.0,87,0.00,,,0.00,weatherlink.com 1.10,2013-05-02 10:57:00,
2013-05-02 07:12:00,59.4,55.0,30.14,SE,132,1.0,5.0,86,0.00,,,0.00,weatherlink.com 1.10,2013-05-02 11:12:00,
2013-05-02 07:27:00,60.6,56.0,30.15,SSE,157,4.0,8.0,84,0.00,,,0.00,weatherlink.com 1.10,2013-05-02 11:27:00,
2013-05-02 07:42:00,61.8,56.0,30.15,SSE,167,1.0,7.0,81,0.00,,,0.00,weatherlink.com 1.10,2013-05-02 11:42:00,
2013-05-02 07:57:00,62.8,56.0,30.15,SSE,149,2.0,7.0,78,0.00,,,0.00,weatherlink.com 1.10,2013-05-02 11:57:00,
2013-05-02 08:12:00,63.5,56.0,30.16,South,182,2.0,10.0,76,0.00,,,0.00,weatherlink.com 1.10,2013-05-02 12:12:00,
2013-05-02 08:29:00,64.2,56.0,30.16,SE,134,2.0,9.0,75,0.00,,,0.00,weatherlink.com 1.10,2013-05-02 12:29:00,
2013-05-02 08:43:00,64.7,56.0,30.17,SSE,148,2.0,8.0,74,0.00,,,0.00,weatherlink.com 1.10,2013-05-02 12:43:00,
2013-05-02 08:58:00,65.5,57.0,30.17,South,169,1.0,7.0,74,0.00,,,0.00,weatherlink.com 1.10,2013-05-02 12:58:00,
2013-05-02 09:13:00,66.5,57.0,30.17,SSE,168,6.0,8.0,71,0.00,,,0.00,weatherlink.com 1.10,2013-05-02 13:13:00,
2013-05-02 09:28:00,67.4,58.0,30.18,SSE,151,4.0,9.0,71,0.00,,,0.00,weatherlink.com 1.10,2013-05-02 13:28:00,
2013-05-02 09:43:00,68.2,58.0,30.17,SE,144,5.0,10.0,69,0.00,,,0.00,weatherlink.com 1.10,2013-05-02 13:43:00,
2013-05-02 09:59:00,68.9,57.0,30.17,South,185,5.0,9.0,67,0.00,,,0.00,weatherlink.com 1.10,2013-05-02 13:59:00,
2013-05-02 10:14:00,69.3,57.0,30.17,South,186,8.0,10.0,64,0.00,,,0.00,weatherlink.com 1.10,2013-05-02 14:14:00,
2013-05-02 10:29:00,69.9,58.0,30.17,South,186,7.0,9.0,66,0.00,,,0.00,weatherlink.com 1.10,2013-05-02 14:29:00,
2013-05-02 10:45:00,70.5,58.0,30.17,South,178,7.0,11.0,64,0.00,,,0.00,weatherlink.com 1.10,2013-05-02 14:45:00,
2013-05-02 11:00:00,71.2,58.0,30.17,South,191,5.0,11.0,63,0.00,,,0.00,weatherlink.com 1.10,2013-05-02 15:00:00,
2013-05-02 11:15:00,72.1,59.0,30.17,South,186,3.0,9.0,64,0.00,,,0.00,weatherlink.com 1.10,2013-05-02 15:15:00,
2013-05-02 11:30:00,73.4,59.0,30.16,South,171,2.0,7.0,60,0.00,,,0.00,weatherlink.com 1.10,2013-05-02 15:30:00,
2013-05-02 11:47:00,74.2,61.0,30.16,SSE,168,3.0,9.0,64,0.00,,,0.00,weatherlink.com 1.10,2013-05-02 15:47:00,
2013-05-02 12:02:00,74.9,60.0,30.15,SE,143,4.0,8.0,60,0.00,,,0.00,weatherlink.com 1.10,2013-05-02 16:02:00,
2013-05-02 12:17:00,74.8,61.0,30.15,SSE,157,6.0,9.0,62,0.00,,,0.00,weatherlink.com 1.10,2013-05-02 16:17:00,
2013-05-02 12:32:00,75.2,60.0,30.15,East,96,7.0,13.0,60,0.00,,,0.00,weatherlink.com 1.10,2013-05-02 16:32:00,
2013-05-02 12:47:00,75.5,59.0,30.15,SE,144,3.0,10.0,57,0.00,,,0.00,weatherlink.com 1.10,2013-05-02 16:47:00,
2013-05-02 13:02:00,75.4,60.0,30.14,SE,140,6.0,12.0,59,0.00,,,0.00,weatherlink.com 1.10,2013-05-02 17:02:00,
2013-05-02 13:18:00,75.2,60.0,30.13,SE,134,6.0,12.0,59,0.00,,,0.00,weatherlink.com 1.10,2013-05-02 17:18:00,
2013-05-02 13:33:00,75.1,60.0,30.13,SE,140,5.0,13.0,60,0.00,,,0.00,weatherlink.com 1.10,2013-05-02 17:33:00,
2013-05-02 13:48:00,75.5,61.0,30.13,SE,133,4.0,14.0,61,0.00,,,0.00,weatherlink.com 1.10,2013-05-02 17:48:00,
2013-05-02 14:03:00,75.1,59.0,30.13,ESE,123,2.0,14.0,58,0.00,,,0.00,weatherlink.com 1.10,2013-05-02 18:03:00,
2013-05-02 14:18:00,75.1,59.0,30.13,ESE,123,9.0,14.0,57,0.00,,,0.00,weatherlink.com 1.10,2013-05-02 18:18:00,
2013-05-02 14:34:00,75.4,61.0,30.12,ESE,121,11.0,12.0,61,0.00,,,0.00,weatherlink.com 1.10,2013-05-02 18:34:00,
2013-05-02 14:49:00,75.2,60.0,30.12,SE,135,3.0,14.0,60,0.00,,,0.00,weatherlink.com 1.10,2013-05-02 18:49:00,
2013-05-02 15:04:00,74.9,59.0,30.12,SE,140,8.0,15.0,58,0.00,,,0.00,weatherlink.com 1.10,2013-05-02 19:04:00,
2013-05-02 15:19:00,75.2,60.0,30.11,SE,142,7.0,14.0,59,0.00,,,0.00,weatherlink.com 1.10,2013-05-02 19:19:00,
2013-05-02 15:35:00,75.0,60.0,30.12,ESE,121,11.0,15.0,59,0.00,,,0.00,weatherlink.com 1.10,2013-05-02 19:35:00,
2013-05-02 15:50:00,74.4,59.0,30.11,ESE,121,5.0,14.0,59,0.00,,,0.00,weatherlink.com 1.10,2013-05-02 19:50:00,
2013-05-02 16:05:00,74.4,60.0,30.11,SE,125,10.0,16.0,61,0.00,,,0.00,weatherlink.com 1.10,2013-05-02 20:05:00,
2013-05-02 16:20:00,74.3,58.0,30.10,SE,143,6.0,14.0,58,0.00,,,0.00,weatherlink.com 1.10,2013-05-02 20:20:00,
2013-05-02 16:37:00,73.9,59.0,30.09,SSE,147,8.0,16.0,59,0.00,,,0.00,weatherlink.com 1.10,2013-05-02 20:37:00,
2013-05-02 16:52:00,73.0,57.0,30.09,SSE,154,5.0,13.0,58,0.00,,,0.00,weatherlink.com 1.10,2013-05-02 20:52:00,
2013-05-02 17:06:00,72.6,57.0,30.09,ESE,113,8.0,15.0,58,0.00,,,0.00,weatherlink.com 1.10,2013-05-02 21:06:00,
2013-05-02 17:22:00,73.3,57.0,30.09,South,180,9.0,16.0,57,0.00,,,0.00,weatherlink.com 1.10,2013-05-02 21:22:00,
2013-05-02 17:37:00,73.5,57.0,30.09,SE,139,6.0,11.0,56,0.00,,,0.00,weatherlink.com 1.10,2013-05-02 21:37:00,
2013-05-02 17:53:00,73.1,58.0,30.09,South,169,7.0,12.0,60,0.00,,,0.00,weatherlink.com 1.10,2013-05-02 21:53:00,
2013-05-02 18:07:00,73.0,56.0,30.08,East,101,10.0,16.0,56,0.00,,,0.00,weatherlink.com 1.10,2013-05-02 22:07:00,
2013-05-02 18:22:00,72.7,57.0,30.08,SE,124,7.0,12.0,59,0.00,,,0.00,weatherlink.com 1.10,2013-05-02 22:22:00,
2013-05-02 18:38:00,72.9,58.0,30.07,ESE,117,5.0,9.0,60,0.00,,,0.00,weatherlink.com 1.10,2013-05-02 22:38:00,
2013-05-02 18:53:00,72.8,57.0,30.07,SE,146,4.0,9.0,58,0.00,,,0.00,weatherlink.com 1.10,2013-05-02 22:53:00,
2013-05-02 19:08:00,72.2,57.0,30.07,SE,129,5.0,9.0,59,0.00,,,0.00,weatherlink.com 1.10,2013-05-02 23:08:00,
2013-05-02 19:23:00,71.7,57.0,30.06,SE,141,6.0,11.0,60,0.00,,,0.00,weatherlink.com 1.10,2013-05-02 23:23:00,
2013-05-02 19:39:00,71.7,56.0,30.06,ESE,115,5.0,8.0,59,0.00,,,0.00,weatherlink.com 1.10,2013-05-02 23:39:00,
2013-05-02 19:54:00,71.2,57.0,30.07,SE,138,7.0,10.0,61,0.00,,,0.00,weatherlink.com 1.10,2013-05-02 23:54:00,
2013-05-02 20:09:00,70.9,56.0,30.07,SE,140,6.0,10.0,60,0.00,,,0.00,weatherlink.com 1.10,2013-05-03 00:09:00,
2013-05-02 20:24:00,70.2,56.0,30.06,SSE,148,5.0,10.0,62,0.00,,,0.00,weatherlink.com 1.10,2013-05-03 00:24:00,
2013-05-02 20:40:00,69.5,56.0,30.07,SE,143,1.0,6.0,63,0.00,,,0.00,weatherlink.com 1.10,2013-05-03 00:40:00,
2013-05-02 20:57:00,68.7,56.0,30.07,ESE,119,1.0,3.0,65,0.00,,,0.00,weatherlink.com 1.10,2013-05-03 00:57:00,
2013-05-02 21:10:00,68.2,56.0,30.07,ESE,119,1.0,4.0,66,0.00,,,0.00,weatherlink.com 1.10,2013-05-03 01:10:00,
2013-05-02 21:25:00,67.5,57.0,30.07,ESE,119,1.0,3.0,68,0.00,,,0.00,weatherlink.com 1.10,2013-05-03 01:25:00,
2013-05-02 21:40:00,66.9,57.0,30.07,ESE,119,2.0,3.0,70,0.00,,,0.00,weatherlink.com 1.10,2013-05-03 01:40:00,
2013-05-02 21:57:00,66.4,57.0,30.07,ESE,116,1.0,3.0,71,0.00,,,0.00,weatherlink.com 1.10,2013-05-03 01:57:00,
2013-05-02 22:12:00,66.1,57.0,30.07,ESE,116,2.0,3.0,72,0.00,,,0.00,weatherlink.com 1.10,2013-05-03 02:12:00,
2013-05-02 22:27:00,66.0,57.0,30.07,ESE,117,2.0,4.0,73,0.00,,,0.00,weatherlink.com 1.10,2013-05-03 02:27:00,
2013-05-02 22:42:00,65.9,57.0,30.07,SE,125,1.0,4.0,73,0.00,,,0.00,weatherlink.com 1.10,2013-05-03 02:42:00,
2013-05-02 22:57:00,65.8,57.0,30.07,ESE,117,1.0,4.0,73,0.00,,,0.00,weatherlink.com 1.10,2013-05-03 02:57:00,
2013-05-02 23:12:00,65.6,57.0,30.06,ESE,117,1.0,3.0,74,0.00,,,0.00,weatherlink.com 1.10,2013-05-03 03:12:00,
2013-05-02 23:29:00,65.3,57.0,30.07,ESE,123,0.0,3.0,75,0.00,,,0.00,weatherlink.com 1.10,2013-05-03 03:29:00,
2013-05-02 23:43:00,64.8,57.0,30.07,ESE,123,0.0,0.0,76,0.00,,,0.00,weatherlink.com 1.10,2013-05-03 03:43:00,
2013-05-02 23:58:00,64.1,57.0,30.07,ESE,123,0.0,2.0,78,0.00,,,0.00,weatherlink.com 1.10,2013-05-03 03:58:00,